[Date Prev][Date Next][Thread Prev][Thread Next][Date Index][Thread Index]

[jamsat-news:1725] jas2info #279



========================   最新情報   ==============================

        Last updated  15Jun2002  17:50(JST)   #279

====================================================================
   
1)アマチュア通信衛星情報、FOシリーズの軌道要素、テレメトリ、QSOの
   状況等をまとめてみました.
   
 FO−29の2002年6月14日(金)の18:45(JST)のパスでは
JARLのホームページのとうりアナログ運用でした。 今日までの観測した
テレメトリーと最終の分析結果を報告しておきます。

AS28762C  14Jun2002
18:46-18:58(JST)
AOS   MEL  LOS  Elev
  3   288  214  38.4
Freq. 435.804-.785MHz
(JAS-2 No.103 A 2380-2800)

HI HI AE 07 88 55 00 D4 29 98 09 4C 3F 29 66 54 8C 88 95 7E 85 8B 91 8B 84 
HI HI AE 07 88 55 00 D4 29 98 09 4C 40 3D 66 54 8C 88 95 79 85 8B 91 8B 84 
HI HI AE 07 88 55 00 D4 29 97 09 4C 46 3E 67 53 8C 89 95 98 85 8B 91 8B 84 
HI HI AE 07 88 55 00 D4 29 98 09 4C 4F 71 68 55 8C 89 96 73 85 8B 81 8B 84 
HI HI AE 07 88 55 00 D4 29 98 09 4C 5D 8A 67 54 8C 89 95 6C 85 8B 91 8B 84 
HI HI AE 07 88 55 00 D4 29 98 09 4C 6B 9F 65 54 8C 89 95 65 A7 8B 91 8B 84 
HI HI AE 07 88 55 00 D4 29 98 09 4C 79 AB 66 54 8C 8A 95 70 87 8B 91 8B 84 
HI HI AE 07 88 55 00 D4 29 98 09 4C 86 AF 67 53 8C 89 96 70 85 8B 91 8B 84 
HI HI AE 07 88 55 00 D4 29 95 09 4C 95 A9 69 52 8D 89 96 7D 85 8B 91 8B 84 
HI HI AE 07 88 55 00 D4 29 98 09 4C 97 9A 6E 50 8E 8A 96 6F 85 8B 91 8B 84 
HI HI AE 07 88 55 00 D4 29 9D 19 4C 99 8Z 6F 50 8E 8A 97 72 85 8B 91 8A 84 
HI HI AE 07 88 55 00 D4 29 98 09 4C 98 6F 6F 51 8E 8A 97 6D 85 8B 91 8B 84 
HI HI AE 07 88 55 00 D4 29 98 09 4C 93 5A 72 4E 8F 8B 98 7B 85 8B 91 8A 84 
HI HI AE 07 88 55 00 D4 29 98 09 4C 8D 47 71 4F 8E 8B 98 7D 85 8B 91 8A 83 
HI HI AE 07 88 55 00 D4 29 98 09 4C 85 39 73 4D 8E 8B 98 7E 85 8B 91 8A 83 
 
AS28761C  14Jun2002
17:00-17:12(JST)
AOS   MEL  LOS  Elev
 33    95  156  18.4
Freq. 435.803-.786MHz
(JAS-2 No.103 A 1880-2380)

HI HI AE 07 88 55 00 D4 29 98 09 4C 90 B4 B6 55 8C 89 95 76 8D 86 90 93 86 
HI HI AE 07 88 55 00 D4 29 98 09 4C 81 B9 6A 51 8D 8A 97 7D 8D 86 90 93 86 
HI HI AE 07 88 55 00 D4 29 98 09 4C 6F B6 6C 51 8D 8B 98 76 8C 86 90 93 86 
HI HI AE 07 88 55 00 D4 29 98 09 4C 5B AC 6C 52 8F 8C 99 76 8C 86 90 93 85 
HI HI AE 07 88 55 00 D4 29 98 09 4C 4A 9D 6A 52 90 8C 99 70 8C 86 90 93 85 
HI HI AE 07 88 55 00 D4 29 98 09 4C 3C 88 69 53 90 8C 99 7B 8C 86 90 93 86 
HI HI AE 07 88 55 00 D4 29 98 09 4C 33 72 68 54 8F 8B 98 84 8C 86 90 92 85 
HI HI AE 07 88 55 00 D4 29 98 09 4C 32 5D 64 55 8E 8A 97 83 8C 86 90 92 85 
HI HI AE 07 88 55 00 D4 29 98 09 4C 42 40 5C 5B 8C 89 95 64 8C 86 90 93 85 
HI HI AE 07 88 55 00 D4 29 98 09 4C 52 3A 58 5B 8B 87 94 66 8C 86 90 92 85 
HI HI AE 07 88 55 00 D4 29 98 09 4C 64 3A 57 5C 8A 87 93 73 8C 86 90 92 85 
HI HI AE 07 88 55 00 D4 29 98 09 4C 76 3F 52 5E 89 86 92 60 8C 86 90 92 85 
HI HI AE 07 88 55 00 D4 29 98 09 4C 87 4A 51 5F 88 85 92 95 8C 86 90 92 85 
HI HI AE 07 88 55 00 D4 29 98 09 4C 93 56 53 5E 88 85 91 7A 8C 86 90 92 85 
HI HI AE 07 88 55 00 D4 29 98 09 4C 9A 61 4D 61 87 74 91 7C 8C 86 90 92 85 


AS28749C  13Jun2002
19:41-19:49(JST)
AOS   MEL  LOS  Elev
347   297  246  11.5
Freq. 435.804-.785MHz
(JAS-2 No.103 A 1460-1880)

HI HI AE 07 88 55 00 D5 BC 9B 09 18 55 63 5F 56 8C 88 95 75 8D 8E 8C 89 83 
HI HI AE 07 88 55 00 D5 BC 9B 09 18 58 73 5F 57 88 87 94 71 8D 8E 8C 89 83 
HI HI AE 07 88 55 00 D4 BC 9B 09 18 66 76 5F 57 8B 87 94 71 8C 8E 8C 86 83 
HI HI AE 07 88 55 00 D4 BC 9B 09 18 76 8B 5F 59 8A 87 93 6D 8C 8E 8C 89 83 
HI HI AE 07 88 55 00 D4 BC 9B 09 18 85 91 5A 5A 8A 86 93 72 8C 8E 8D 89 83 
HI HI AE 07 88 55 00 D4 BC 9B 09 18 82 94 58 5E 8A 8E 92 81 65 8E 8D 89 83 
HI HI AE 07 88 55 00 D4 BC 9B 09 18 9E 93 59 5D 89 85 92 73 8C 8E 8D 89 83 
HI HI AE 07 88 55 00 D4 BC 9B 09 18 96 95 A6 8E 86 5C 88 66 8C 8E 8D 89 83 
HI HI AE 07 88 55 00 D4 BC 9B 09 18 AA 87 52 5E 88 84 91 64 8C 8E 8D 89 83 
HI HI AE 07 88 55 00 D4 BC 9B 09 18 AB 7D 50 85 87 84 90 8A 8C 8E 8D 89 83 
  
AS28735C  12Jun2002
18:49-19:02(JST)
AOS   MEL  LOS  Elev
  2   288  216  35.5
Freq. 435.804-.785MHz
(JAS-2 No.103 A 920-1460)

HI HI AE 07 88 55 00 D4 E1 AE 09 04 45 86 61 57 8C 89 95 69 8D 8C 8C 8C 84 
HI HI AE 07 88 55 00 D4 E1 AE 09 04 54 85 5E 56 8B 89 94 6B 8D 8C 8C 8C 84 
HI HI AE 07 88 55 00 D4 E1 AE 09 04 44 8C 56 5C 8A 87 93 75 8D 8D 8C 8C 84 
HI HI AE 07 88 55 00 D4 E1 AE 09 04 72 8B 5A 5D 89 86 93 71 8D 8D 8C 8C 83 
HI HI AE 07 88 55 00 D4 E1 AE 09 04 81 86 54 5D 89 86 92 84 8D 8D 8C 8B 84 
HI HI AE 07 88 55 00 D4 E1 AE 09 04 8F 7F 50 60 88 85 91 80 8D 8D 8D 8B 84 
HI HI AE 07 88 55 00 D4 E1 AE 09 04 99 75 50 5F 87 85 91 8C 8D 8D 8D 8B 84 
HI HI AE 07 88 55 00 D4 E1 AE 99 04 A1 6B 4F 5F 87 85 91 89 8D 8D 8D 8B 84 
HI HI AE 07 88 55 00 D4 E1 AE 09 04 A5 60 4F 5F 87 84 91 83 8D 8D 8D 8B 84 
HI HI AE 07 88 55 00 D4 E1 AE 09 04 A6 56 4F 60 87 84 91 80 8D 8D 8D 8B 84
HI HI AE 07 88 55 00 D4 E1 AE 09 04 A4 4C 51 5F 87 84 90 6F 8D 8D 8D 8B 84 
HI HI AE 07 88 55 00 D4 E1 AE 09 04 9F 45 57 5C 87 84 90 6E 8D 8D 8D 8B 84 
HI HI AE 07 88 55 00 D4 E1 AE 09 04 98 3F 59 5A 87 84 91 6D 8D 8D 8D 8B 84 
HI HI AE 07 88 55 00 D4 E1 AE 09 04 8F 3B 5A 5A 87 84 91 78 8D 8D 8D 8B 84 
HI HI AE 07 88 55 00 D4 E1 AE 09 04 84 3B 5F 59 87 85 91 7B 8D 8D 8D 8B 84 
HI HI AE 07 88 55 00 D4 E1 AE 09 04 79 3D 5E 57 88 85 91 74 8D 8D 8D 8B 84 
HI HI AE 07 88 55 00 D4 E1 AE 09 04 6E 41 5D 59 88 85 91 73 8D 8D 8D 8B 84 
HI HI AE 07 88 55 00 D4 E1 AE 09 04 63 4A 5F 57 88 85 91 81 8D 8D 8D 8B 84 
HI HI AE 07 88 55 00 D4 E1 AE 09 04 61 54 5F 57 88 85 91 81 8D 8D 8D 8B 84

AS28708C  10Jun2002
18:53-19:07(JST)
AOS   MEL  LOS  Elev
  1   291  218  32.9
Freq. 435.804-.785MHz
(JAS-2 No.102 B 24300-END)

HI HI AE 07 88 55 00 D4 DE 65 09 09 95 62 7D 49 93 8E B1 88 8F 8A 8E 92 86 
HI HI AE 07 88 55 00 D4 DE 65 09 09 8D 61 80 60 90 8D 9A 7D 8F 89 8E 92 86 
HI HI AE 07 88 55 00 D4 DE 65 09 09 84 5F 7D 49 91 8E 9B 83 8F 89 8E 92 86 
HI HI AE 07 88 55 00 D4 DE 65 09 09 7C 62 7D 49 92 8E 9C 64 8F 89 8E 92 86 
HI HI AE 07 88 55 00 D4 DE 65 09 09 74 64 7A 4A 92 8E 9C 95 8F 89 8E 92 86 
HI HI AE 07 88 55 00 D4 DE 65 09 09 6C 65 77 4F 91 8E 9B 61 90 89 8E 92 86 
HI HI AE 07 88 55 00 D4 DE 65 09 09 66 6A 79 49 94 8E B0 61 90 89 8E 93 86 
HI HI AE 07 88 55 00 D4 DE 65 09 09 60 6F 79 4A 93 8F 9C 62 89 88 8E 92 86 
HI HI AE 07 88 55 00 D4 DE 65 09 09 5C 73 76 4C 93 8F 9C 64 90 88 8E 93 86 
HI HI AE 07 88 55 00 D4 DE 65 09 09 59 79 72 4E 92 8E 9B 81 90 89 8E 92 86 
HI HI AE 07 88 55 00 D4 DE 65 09 09 57 7D 70 4F 91 8D 9B 80 90 89 8E 92 86 
HI HI AE 07 88 55 00 D4 DE 65 09 09 57 82 6C 51 90 8C 9A 7E 90 89 8D 92 86 
HI HI AE 07 88 55 00 D4 DE 65 09 09 58 86 6A 52 8F 8C 98 A2 90 89 8D 92 86 
HI HI AE 07 88 55 00 D4 DE 65 09 09 5A 88 6A 52 8F 8B 98 77 90 89 8D 92 86 
HI HI AE 07 88 55 00 D4 DE 65 09 09 5D 8A 6E 51 8F 8C 99 75 90 89 8D 92 86 
HI HI AE 07 88 55 00 D4 DE 65 09 09 5F 8A 71 50 91 8D 9A 81 90 89 8D 82 86 
HI HI AE 07 88 55 00 D4 DE 65 09 09 62 89 72 4F 9O 8E 8B 7A 90 89 8D 92 86 
HI HI AE 07 88 55 00 D4 DE 65 09 09 64 87 73 4E 92 8E 8B 79 90 89 8D 92 86 
HI HI AE 07 88 55 00 D4 
 
------------------------ FO-29の軌道要素 ------------------------------        
 
  ■ 軌道要素1:「jamsat−keps:1213」より         
          SB KEPS @ AMSAT  $ORB02164.N
          2Line Orbital Elements 02164.AMSAT

HR AMSAT ORBITAL ELEMENTS FOR AMATEUR SATELLITES IN NASA FORMAT
FROM WA5QGD FORT WORTH,TX June 13, 2002
SEND SUBSCRIBE/UNSUBSCRIBE TO majordomo@amsat.org ONLY
BID: ORB02164.N

 DECODE 2-LINE ELSETS WITH THE FOLLOWING KEY:
 1 AAAAAU 00  0  0 BBBBB.BBBBBBBB  .CCCCCCCC  00000-0  00000-0 0  DDDZ
 2 AAAAA EEE.EEEE FFF.FFFF GGGGGGG HHH.HHHH III.IIII JJ.JJJJJJJJKKKKKZ
 KEY: A-CATALOGNUM B-EPOCHTIME C-DECAY D-ELSETNUM E-INCLINATION F-RAAN
 G-ECCENTRICITY H-ARGPERIGEE I-MNANOM J-MNMOTION K-ORBITNUM Z-CHECKSUM

FO-29
1 24278U 96046B   02164.05014637  .00000076  00000-0  11097-3 0  5043
2 24278  98.5156 344.6348 0350849 145.9648 216.4542 13.52843384287436

 ■ 軌道要素2:「jamsat−keps:12012」より
 
       SB KEPS @ AMSAT  $ORB02164.O
       Orbital Elements  02164.OSCAR
HR AMSAT ORBITAL ELEMENTS FOR OSCAR SATELLITES
FROM WA5QGD FORT WORTH,TX June 13, 2002
SEND SUBSCRIBE/UNSUBSCRIBE TO majordomo@amsat.org ONLY
BID: ORB02164.O
TO ALL RADIO AMATEURS BT

Satellite: FO-29
Catalog number: 24278
Epoch time:      02164.05014637
Element set:     504
Inclination:       98.5156 deg
RA of node:       344.6348 deg
Eccentricity:    0.0350849
Arg of perigee:   145.9648 deg
Mean anomaly:     216.4542 deg
Mean motion:   13.52843384 rev/day
Decay rate:        7.6e-07 rev/day^2
Epoch rev:           28743
Checksum:              327

-------------------  FO-29(JAS-2)のテレメトリに関する情報  ---------------------- 
 
2)上記2002年6月14日(金)のテレメトリの最終行を分析しておきます.

AS28762C  14Jun2002
18:46-18:58(JST)
AOS   MEL  LOS  Elev
  3   288  214  38.4
Freq. 435.804-.785MHz
(JAS-2 No.103 A 2380-2800)

HI HE AE 07 88 55 00 D4 29 98 09 4C 85 39 73 4D 8E 8B 98 7E 85 8B 91 8A 83

テレメトリ   内 容         換算算値 単 位
3C	磁気センサーZ軸=	65196.1	[nT]
3D	磁気センサX軸	=	27941.2	[nT]
4A	太陽電池発生電流=	 1127.5	[mA]
4B	B充放電電流	=	 -490.8	[mA]
4C	B端子電圧	=	   15.3	[V]
4D	B中間端子電圧	=	    6.7	[V]
5A	バス電圧	=	   14.9	[V]
5B	JTA送信電力	=	  720.9	[mW]
5C 	構体温度1	=	   30.2	[℃]
5D	構体温度2	=	   27.9	[℃]
6A	構体温度3	=	   25.6	[℃]
6B	構体温度4	=	   28.3	[℃]
6C	Bセル温度	=	   31.0	[℃]

 ========================== FO-29(ふじ3号)のテレメトリ分析、QSO情報等 =====================
   
 3)[jamsat-bb:

 =================================================================================================
 
 4)JARL のホームページに運用予定が記載されていましたのでご紹介します.
       ( http://www.jarl.or.jp/Japanese/3_Fuji/new/uy.htm )
       
        *** 運用予定について ***

   4月01日(月) 〜 6月30日(日)アナログ系運用 

  *なお,運用予定は都合により,変更することがありますので,あらかじめご了承願います。

 照会先 : lab@jarl.or.jp

 最新の情報はテレホンサービス(03−3942−1000)をお聞きください。  
 以後の運用につきましては平成14年7月上旬にお知らせいたします。        
     
-----------------------    FO−20(JAS-1b)道要素   -------------------------
  
  ■ 軌道要素1 :出典はFO-29「ふじ3号」に同じ.
  
FO-20
1 20480U 90013C   02163.97859839  .00000000  00000-0  75158-4 0 04262
2 20480 099.0153 169.2134 0540005 211.6688 145.0848 12.83317764578377
 
  ■ 軌道要素2 :出典はFO−29「ふじ3号」に同じ.
               
